Sierra Vista Municipal Libby Army Air Field
KFHU : now visible

Airfield :











YOU CAN JOIN US ON...

 
LOGIN :

Register | Disclaimer

   EN    FR    IT 

 









Legend :    VFR   Marginal VFR   IFR   Intensive IFR   Very Intensive IFR
Visi :
Ceiling :
>= 8 km
>= 3000ft
5 to 8 km
1000 to 3000 ft
1500m to 5 km
500 to 1000 ft
800 to 1500m
200 to 500 ft
< 800m
< 200 ft
Symbols :   Thunderstorms  Fog  Heavy snow  Heavy precipitations  Wind > 20 kt






- Airport Elevation : 4719 ft
- IATA code : FHU


KFHU - Sierra Vista Municipal Libby Army Air Field

CURRENT METAR :
  • 291922Z AUTO 24013G18KT 10SM CLR 14/M16 A2998 RMK AO2 SLP135

EXPIRED METARs :
  • 291855Z AUTO 20008KT 10SM CLR 13/M14 A3000 RMK AO2 SLP142 T01341145
  • 291819Z AUTO 16016G19KT 10SM CLR 13/M15 A3002 RMK AO2 SLP145
  • 291755Z AUTO 16007KT 10SM CLR 13/M17 A3004 RMK AO2 SLP156 T01301168 10130 21006 51012
  • 291655Z AUTO 00000KT 10SM CLR 08/M15 A3003 RMK AO2 SLP159 T00841146
  • 291649Z AUTO 00000KT 10SM CLR 08/M14 A3004 RMK AO2 SLP163

Expired Forecast.
KZAB FIR / North America



MET'MAP, your aeronautical weather chart ! - Copyright ORBIFLY December 2007 - Disclaimer

ORBIFLY MET'MAP TEAM :

Programming & Development : Alexandra Zaïnal
Original concept : Baudouin d'Aumeries
Technical & hardware support : Manuel Goepfert
Assistance : Marc-Olivier Méhu




SOURCES & CREDITS :

   NOAA       Earth
Advisory